EN

Hourly Weather Alterosa

Today, 21 January, Thursday

Time Temperature Precipitation Wind Pressure Humidity
00:00 +22°C° 0.1 mm 1 mps 690 mmHg 88%
01:00 +21°C° 0.1 mm 1 mps 690 mmHg 89%
02:00 +21°C° 0.1 mm 1 mps 690 mmHg 91%
03:00 +20°C° 0.1 mm 1 mps 690 mmHg 92%
04:00 +20°C° 0 mm 1 mps 690 mmHg 92%
05:00 +19°C° 0 mm 1 mps 690 mmHg 93%
06:00 +19°C° 0 mm 1 mps 690 mmHg 93%
07:00 +21°C° 0 mm 1 mps 691 mmHg 87%
08:00 +21°C° 0 mm 2 mps 692 mmHg 80%
09:00 +24°C° 0 mm 2 mps 692 mmHg 73%
10:00 +25°C° 0 mm 3 mps 692 mmHg 70%
11:00 +26°C° 0 mm 3 mps 692 mmHg 67%
12:00 +28°C° 0 mm 4 mps 692 mmHg 64%
13:00 +28°C° 0 mm 4 mps 692 mmHg 63%
14:00 +28°C° 0 mm 4 mps 691 mmHg 62%
15:00 +28°C° 0 mm 4 mps 691 mmHg 62%
16:00 +28°C° 0 mm 3 mps 691 mmHg 66%
17:00 +27°C° 0 mm 3 mps 690 mmHg 71%
18:00 +26°C° 0 mm 2 mps 690 mmHg 76%
19:00 +24°C° 0 mm 1 mps 690 mmHg 79%
20:00 +23°C° 0 mm 1 mps 691 mmHg 82%
21:00 +19°C° 0 mm 0 mps 691 mmHg 84%
22:00 +19°C° 0 mm 0 mps 691 mmHg 86%
23:00 +21°C° 0 mm 1 mps 691 mmHg 87%

Tomorrow, 22 January, Friday

Time Temperature Precipitation Wind Pressure Humidity
00:00 +21°C° 0 mm 1 mps 692 mmHg 88%
01:00 +20°C° 0 mm 1 mps 691 mmHg 90%
02:00 +20°C° 0 mm 1 mps 691 mmHg 92%
03:00 +19°C° 0 mm 1 mps 691 mmHg 94%
04:00 +19°C° 0 mm 1 mps 691 mmHg 94%
05:00 +18°C° 0 mm 1 mps 692 mmHg 95%
06:00 +18°C° 0 mm 1 mps 692 mmHg 95%
07:00 +20°C° 0 mm 1 mps 692 mmHg 89%
08:00 +22°C° 0 mm 1 mps 693 mmHg 83%
09:00 +24°C° 0 mm 2 mps 694 mmHg 77%
10:00 +25°C° 0 mm 2 mps 694 mmHg 72%
11:00 +27°C° 0 mm 2 mps 694 mmHg 67%
12:00 +28°C° 0 mm 3 mps 694 mmHg 62%
13:00 +28°C° 0.4 mm 3 mps 693 mmHg 64%
14:00 +28°C° 0.4 mm 3 mps 693 mmHg 65%
15:00 +28°C° 0.4 mm 3 mps 692 mmHg 67%
16:00 +27°C° 0.4 mm 2 mps 692 mmHg 72%
17:00 +26°C° 0.4 mm 2 mps 692 mmHg 77%
18:00 +25°C° 0.4 mm 1 mps 691 mmHg 82%
19:00 +24°C° 0 mm 1 mps 691 mmHg 84%
20:00 +23°C° 0 mm 1 mps 692 mmHg 85%
21:00 +19°C° 0 mm 0 mps 692 mmHg 87%
22:00 +21°C° 0 mm 1 mps 692 mmHg 88%
23:00 +21°C° 0 mm 1 mps 692 mmHg 89%

Day after tomorrow, 23 January, Saturday

Time Temperature Precipitation Wind Pressure Humidity
00:00 +20°C° 0 mm 1 mps 692 mmHg 91%
01:00 +20°C° 0 mm 1 mps 692 mmHg 92%
02:00 +19°C° 0 mm 1 mps 692 mmHg 94%
03:00 +19°C° 0 mm 1 mps 691 mmHg 95%
04:00 +19°C° 0 mm 1 mps 691 mmHg 96%
05:00 +18°C° 0 mm 1 mps 692 mmHg 97%
06:00 +18°C° 0 mm 1 mps 692 mmHg 97%
07:00 +20°C° 0 mm 1 mps 692 mmHg 92%
08:00 +21°C° 0 mm 2 mps 693 mmHg 87%
09:00 +23°C° 0 mm 2 mps 693 mmHg 82%
10:00 +25°C° 0.1 mm 2 mps 693 mmHg 78%
11:00 +26°C° 0.1 mm 2 mps 693 mmHg 74%
12:00 +27°C° 0.1 mm 2 mps 693 mmHg 69%
13:00 +27°C° 0.3 mm 2 mps 692 mmHg 69%
14:00 +27°C° 0.3 mm 2 mps 692 mmHg 68%
15:00 +28°C° 0.3 mm 2 mps 691 mmHg 67%
16:00 +27°C° 0.7 mm 2 mps 691 mmHg 72%
17:00 +26°C° 0.7 mm 2 mps 691 mmHg 77%
18:00 +25°C° 0.7 mm 2 mps 690 mmHg 83%
19:00 +24°C° 0.3 mm 1 mps 691 mmHg 84%
20:00 +23°C° 0.3 mm 1 mps 691 mmHg 86%
21:00 +19°C° 0.3 mm 0 mps 691 mmHg 87%
22:00 +21°C° 0.2 mm 1 mps 691 mmHg 89%
23:00 +21°C° 0.2 mm 1 mps 691 mmHg 90%

24 January, Sunday

Time Temperature Precipitation Wind Pressure Humidity
00:00 +19°C° 0.2 mm 2 mps 692 mmHg 92%
01:00 +20°C° 0 mm 1 mps 691 mmHg 93%
02:00 +20°C° 0 mm 1 mps 691 mmHg 95%
03:00 +19°C° 0 mm 1 mps 690 mmHg 97%
04:00 +19°C° 0 mm 1 mps 690 mmHg 97%
05:00 +18°C° 0 mm 1 mps 690 mmHg 97%
06:00 +18°C° 0 mm 1 mps 691 mmHg 97%
07:00 +20°C° 0 mm 1 mps 691 mmHg 92%
08:00 +21°C° 0 mm 2 mps 692 mmHg 87%
09:00 +23°C° 0 mm 2 mps 692 mmHg 82%
10:00 +25°C° 0 mm 2 mps 692 mmHg 76%
11:00 +26°C° 0 mm 2 mps 692 mmHg 71%
12:00 +27°C° 0 mm 2 mps 692 mmHg 65%
13:00 +27°C° 0.1 mm 2 mps 691 mmHg 66%
14:00 +27°C° 0.1 mm 2 mps 690 mmHg 66%
15:00 +28°C° 0.1 mm 2 mps 690 mmHg 67%
16:00 +27°C° 0.6 mm 2 mps 689 mmHg 72%
17:00 +26°C° 0.6 mm 2 mps 689 mmHg 78%
18:00 +25°C° 0.6 mm 1 mps 689 mmHg 83%
19:00 +24°C° 0.4 mm 1 mps 689 mmHg 85%
20:00 +22°C° 0.4 mm 1 mps 689 mmHg 88%
21:00 +19°C° 0.4 mm 0 mps 690 mmHg 90%
22:00 +19°C° 0 mm 0 mps 690 mmHg 90%
23:00 +18°C° 0 mm 0 mps 690 mmHg 89%

25 January, Monday

Time Temperature Precipitation Wind Pressure Humidity
00:00 +18°C° 0 mm 0 mps 690 mmHg 89%
01:00 +18°C° 0 mm 0 mps 689 mmHg 91%
02:00 +17°C° 0 mm 0 mps 689 mmHg 92%
03:00 +17°C° 0 mm 0 mps 689 mmHg 94%
04:00 +17°C° 0 mm 0 mps 689 mmHg 94%
05:00 +19°C° 0 mm 1 mps 689 mmHg 95%
06:00 +18°C° 0 mm 1 mps 689 mmHg 95%
07:00 +20°C° 0 mm 1 mps 690 mmHg 90%
08:00 +22°C° 0 mm 1 mps 690 mmHg 84%
09:00 +24°C° 0 mm 2 mps 691 mmHg 79%
10:00 +25°C° 0 mm 2 mps 691 mmHg 73%
11:00 +27°C° 0 mm 2 mps 691 mmHg 68%
12:00 +28°C° 0 mm 2 mps 691 mmHg 62%
13:00 +28°C° 0 mm 2 mps 690 mmHg 62%
14:00 +28°C° 0 mm 2 mps 690 mmHg 61%
15:00 +29°C° 0 mm 2 mps 689 mmHg 61%
16:00 +28°C° 0.1 mm 2 mps 689 mmHg 67%
17:00 +27°C° 0.1 mm 2 mps 689 mmHg 73%
18:00 +26°C° 0.1 mm 1 mps 688 mmHg 79%
19:00 +25°C° 0.3 mm 1 mps 689 mmHg 82%
20:00 +23°C° 0.3 mm 1 mps 689 mmHg 86%
21:00 +20°C° 0.3 mm 0 mps 689 mmHg 89%
22:00 +19°C° 0.7 mm 0 mps 689 mmHg 90%
23:00 +19°C° 0.7 mm 0 mps 689 mmHg 91%

26 January, Tuesday

Time Temperature Precipitation Wind Pressure Humidity
00:00 +19°C° 0.7 mm 0 mps 689 mmHg 92%
01:00 +18°C° 0.3 mm 0 mps 689 mmHg 93%
02:00 +18°C° 0.3 mm 0 mps 689 mmHg 94%
03:00 +18°C° 0.3 mm 0 mps 688 mmHg 95%
04:00 +20°C° 0 mm 1 mps 688 mmHg 96%
05:00 +20°C° 0 mm 1 mps 689 mmHg 96%
06:00 +20°C° 0 mm 1 mps 689 mmHg 97%
07:00 +21°C° 0 mm 1 mps 690 mmHg 92%
08:00 +23°C° 0 mm 2 mps 690 mmHg 88%
09:00 +24°C° 0 mm 2 mps 691 mmHg 83%
10:00 +26°C° 0.1 mm 2 mps 691 mmHg 79%
11:00 +27°C° 0.1 mm 2 mps 691 mmHg 75%
12:00 +28°C° 0.1 mm 3 mps 691 mmHg 70%
13:00 +28°C° 0.4 mm 2 mps 690 mmHg 70%
14:00 +28°C° 0.4 mm 2 mps 690 mmHg 70%
15:00 +29°C° 0.4 mm 2 mps 689 mmHg 70%
16:00 +28°C° 1.7 mm 2 mps 689 mmHg 76%
17:00 +26°C° 1.7 mm 2 mps 689 mmHg 82%
18:00 +25°C° 1.7 mm 1 mps 689 mmHg 88%
19:00 +24°C° 1 mm 1 mps 689 mmHg 89%
20:00 +23°C° 1 mm 1 mps 689 mmHg 90%
21:00 +20°C° 1 mm 0 mps 690 mmHg 91%
22:00 +20°C° 0 mm 0 mps 690 mmHg 92%
23:00 +20°C° 0 mm 0 mps 689 mmHg 93%
Show more